Hourly Data Report for October 17, 2020

SHEARWATER RCS
NOVA SCOTIA
Current Station Operator: ECCC - MSC

44°37'47.000" N
63°30'48.000" W
24.00 m
8205092
71264
AAW

Download Data

Hourly Data (October 2020)
Hourly Data Report for October 17, 2020
TIME Temp Definition
°C
Dew Point Definition
°C
Rel Hum Definition
%
Wind Dir Definition
10's deg

Wind Spd Definition
km/h
Visibility Definition
km
Stn Press Definition
kPa
Hmdx Definition


Wind Chill Definition


Weather Definition


00:00 10.8 9.9 94 9 6   102.13     LegendNANA
01:00 10.4 9.9 97 8 7   102.08     LegendNANA
02:00 10.8 10.4 97 8 7   102.04     LegendNANA
03:00 11.0 10.6 98 7 9   101.98     LegendNANA
04:00 12.4 12.0 98 10 11   101.95     LegendNANA
05:00 12.4 12.1 98 10 11   101.94     LegendNANA
06:00 12.3 11.9 97 9 9   101.87     LegendNANA
07:00 12.7 11.8 94 10 9   101.85     LegendNANA
08:00 13.2 12.3 95 10 14   101.82     LegendNANA
09:00 13.1 12.8 98 9 13   101.77     LegendNANA
10:00 13.0 12.7 98 8 18   101.73     LegendNANA
11:00 13.6 13.2 98 8 17   101.60     LegendNANA
12:00 14.6 14.2 97 10 18   101.47     LegendNANA
13:00 16.0 14.7 92 13 28   101.33     LegendNANA
14:00 15.7 14.3 92 15 26   101.31     LegendNANA
15:00 15.5 15.1 98 15 26   101.26     LegendNANA
16:00 15.7 15.3 97 15 31   101.16     LegendNANA
17:00 16.8 16.5 99 19 29   101.26     LegendNANA
18:00 13.9 12.4 91 22 22   101.40     LegendNANA
19:00 12.2 9.7 85 23 18   101.60     LegendNANA
20:00 10.3 7.5 83 24 18   101.80     LegendNANA
21:00 9.7 6.7 82 26 16   101.97     LegendNANA
22:00 7.9 4.9 81 27 15   102.13     LegendNANA
23:00 7.2 3.8 79 29 20   102.30     LegendNANA

Notes on Data Quality.

Legend

  • E = Estimated
  • M = Missing
  • NA = Not Available*
  • [empty] = Indicates an unobserved value
Date modified: